Latest Coastal Weather Observations for Frederick Reef

IDQ60701

Issued at 9:01 pm EST Sunday 1 March 2015 (issued every 10 minutes, with the page automatically refreshed every 10 minutes)

About coastal observations | Map of coastal stations | Coastal observations for QLD | Marine services | Other Formats
Station Details ID: 200701 Name: FREDERICK REEF Lat: -20.94 Lon: 154.40 Height: 4.9 m
Data from the previous 72 hours. | See also: Recent months for locations in Queensland
Date/Time
EST
Temp

°C
Wind Pressure Rain
since 9am
mm
Weather Cloud Vis
km
Sea
Height
m
Swell
Dir
 
Speed
knots
Gust
knots
hPa Trend Height
m
Period
s
Dir
01/09:00pm 26.9 SSE 1 3 1008.8 - - - - - - - - -
01/08:30pm 26.9 SSE 1 3 1008.7 - - - - - - - - -
01/08:00pm 27.0 SSE 1 3 1008.5 - - - - - - - - -
01/07:30pm 27.0 S 1 3 1008.3 - - - - - - - - -
01/07:00pm 27.2 S 1 3 1008.1 - - - - - - - - -
01/06:30pm 27.1 S 2 16 1007.9 - - - - - - - - -
01/06:00pm 27.2 S 16 18 1007.5 - - - - - - - - -
01/05:30pm 27.3 S 17 19 1007.1 - - - - - - - - -
01/05:00pm 27.1 S 17 19 1006.8 - - - - - - - - -
01/04:30pm 27.2 S 17 19 1006.6 - - - - - - - - -
01/04:00pm 27.1 S 15 17 1006.3 - - - - - - - - -
01/03:30pm 27.4 S 15 17 1006.2 - - - - - - - - -
01/03:00pm 27.4 S 14 16 1006.2 - - - - - - - - -
01/02:30pm 26.7 S 16 18 1006.4 - - - - - - - - -
01/02:00pm 27.3 S 13 15 1006.7 - - - - - - - - -
01/01:30pm 27.4 S 13 15 1007.1 - - - - - - - - -
01/01:00pm 27.2 S 12 14 1007.2 - - - - - - - - -
01/12:30pm 27.1 S 10 13 1007.6 - - - - - - - - -
01/12:00pm 26.8 S 14 15 1007.6 - - - - - - - - -
01/11:30am 27.2 S 1 15 1007.9 - - - - - - - - -
01/11:00am 27.0 S 11 13 1008.1 - - - - - - - - -
01/10:30am 27.1 S 11 13 1008.5 - - - - - - - - -
01/10:00am 27.0 S 10 13 1008.5 - - - - - - - - -
01/09:30am 26.8 S 11 12 1008.6 - - - - - - - - -
01/09:00am 26.8 S 11 13 1008.6 - - - - - - - - -
01/08:30am 26.7 CALM 0 2 1008.4 - - - - - - - - -
01/08:00am 26.7 CALM 0 3 1008.1 - - - - - - - - -
01/07:30am 26.7 CALM 0 2 1007.7 - - - - - - - - -
01/07:00am 26.8 SSE 1 13 1007.5 - - - - - - - - -
01/06:30am 26.6 SSE 11 13 1007.3 - - - - - - - - -
01/06:00am 26.5 SSE 12 14 1007.0 - - - - - - - - -
01/05:30am 26.5 SSE 12 14 1007.0 - - - - - - - - -
01/05:00am 26.5 SSE 1 3 1006.9 - - - - - - - - -
01/04:30am 26.3 SSE 1 3 1006.9 - - - - - - - - -
01/04:00am 26.4 SSE 1 3 1006.9 - - - - - - - - -
01/03:30am 26.6 SSE 1 11 1006.9 - - - - - - - - -
01/03:00am 26.7 CALM 0 3 1006.8 - - - - - - - - -
01/02:30am 26.6 SSE 1 3 1006.7 - - - - - - - - -
01/02:00am 26.7 CALM 0 3 1006.9 - - - - - - - - -
01/01:30am 26.7 SSE 1 2 1007.3 - - - - - - - - -
01/01:00am 26.8 CALM 0 3 1007.6 - - - - - - - - -
01/12:30am 26.8 SSE 1 3 1008.0 - - - - - - - - -
01/12:00am 26.6 SE 1 3 1008.2 - - - - - - - - -
 
Date/Time
EST
Temp

°C
Wind Pressure Rain
since 9am
mm
Weather Cloud Vis
km
Sea
Height
m
Swell
Dir
 
Speed
knots
Gust
knots
hPa Trend Height
m
Period
s
Dir
28/11:30pm 26.9 CALM 0 2 1008.7 - - - - - - - - -
28/11:00pm 26.9 SSE 1 3 1008.9 - - - - - - - - -
28/10:30pm 26.8 SE 1 3 1008.9 - - - - - - - - -
28/10:00pm 26.8 SSE 1 3 1008.9 - - - - - - - - -
28/09:30pm 27.0 SSE 1 3 1008.8 - - - - - - - - -
28/09:00pm 26.9 SE 1 2 1008.9 - - - - - - - - -
28/08:30pm 27.0 SSE 1 4 1008.8 - - - - - - - - -
28/08:00pm 27.0 SSE 1 3 1008.6 - - - - - - - - -
28/07:30pm 27.1 S 1 3 1008.0 - - - - - - - - -
28/07:00pm 26.9 SSE 1 4 1007.5 - - - - - - - - -
28/06:30pm 27.0 SSE 1 18 1007.2 - - - - - - - - -
28/06:00pm 27.2 S 17 18 1007.0 - - - - - - - - -
28/05:30pm 27.2 S 17 19 1006.9 - - - - - - - - -
28/05:00pm 27.1 S 16 17 1006.6 - - - - - - - - -
28/04:30pm 27.1 S 16 18 1006.5 - - - - - - - - -
28/04:00pm 27.1 S 15 18 1006.3 - - - - - - - - -
28/03:30pm 27.1 S 15 17 1006.4 - - - - - - - - -
28/03:00pm 27.2 S 15 17 1006.5 - - - - - - - - -
28/02:30pm 27.1 S 15 17 1006.5 - - - - - - - - -
28/02:00pm 27.2 S 16 17 1006.6 - - - - - - - - -
28/01:30pm 27.2 SSE 16 17 1006.9 - - - - - - - - -
28/01:00pm 27.3 S 16 17 1007.0 - - - - - - - - -
28/12:30pm 27.3 SSE 15 18 1007.4 - - - - - - - - -
28/12:00pm 27.2 SSE 16 17 1007.8 - - - - - - - - -
28/11:30am 26.9 SE 18 21 1008.0 - - - - - - - - -
28/11:00am 27.2 SE 16 18 1007.9 - - - - - - - - -
28/10:30am 27.4 ESE 16 18 1008.1 - - - - - - - - -
28/10:00am 27.3 SE 15 16 1007.9 - - - - - - - - -
28/09:30am 26.6 ESE 13 15 1008.4 - - - - - - - - -
28/09:00am 27.1 SE 14 17 1008.0 - - - - - - - - -
28/08:30am 27.3 SSE 14 16 1007.8 - - - - - - - - -
28/08:00am 27.2 SSE 15 17 1007.8 - - - - - - - - -
28/07:30am 27.1 SSE 12 14 1007.6 - - - - - - - - -
28/07:00am 27.2 SSE 11 13 1007.3 - - - - - - - - -
28/06:30am 26.9 SSE 12 15 1007.1 - - - - - - - - -
28/06:00am 26.9 SSE 13 15 1006.8 - - - - - - - - -
28/05:30am 27.1 SSE 12 14 1006.4 - - - - - - - - -
28/05:00am 27.0 SE 1 3 1005.9 - - - - - - - - -
28/04:30am 27.0 SSE 1 3 1006.0 - - - - - - - - -
28/04:00am 26.9 CALM 0 2 1005.8 - - - - - - - - -
28/03:30am 26.8 SE 1 3 1005.8 - - - - - - - - -
28/03:00am 26.8 SE 1 3 1005.6 - - - - - - - - -
28/02:30am 27.0 CALM 0 2 1005.8 - - - - - - - - -
28/02:00am 27.0 CALM 0 2 1005.8 - - - - - - - - -
28/01:30am 26.8 SE 1 3 1006.7 - - - - - - - - -
28/01:00am 26.9 SE 1 3 1006.5 - - - - - - - - -
28/12:30am 27.0 SE 1 3 1006.9 - - - - - - - - -
28/12:00am 27.0 ESE 1 3 1007.1 - - - - - - - - -
 
Date/Time
EST
Temp

°C
Wind Pressure Rain
since 9am
mm
Weather Cloud Vis
km
Sea
Height
m
Swell
Dir
 
Speed
knots
Gust
knots
hPa Trend Height
m
Period
s
Dir
27/11:30pm 27.2 SE 1 3 1007.3 - - - - - - - - -
27/11:00pm 27.1 SE 1 3 1007.2 - - - - - - - - -
27/10:30pm 26.9 SE 1 2 1007.5 - - - - - - - - -
27/10:00pm 27.2 SE 1 3 1007.6 - - - - - - - - -
27/09:30pm 27.1 SE 1 3 1007.6 - - - - - - - - -
27/09:00pm 27.1 SSE 1 3 1007.2 - - - - - - - - -
27/08:30pm 26.9 SSE 1 3 1007.0 - - - - - - - - -
27/08:00pm 26.6 SSE 1 3 1006.7 - - - - - - - - -
27/07:30pm 26.7 SE 1 17 1006.3 - - - - - - - - -
27/07:00pm 26.6 SSE 17 20 1006.0 - - - - - - - - -
27/06:30pm 26.3 SE 19 21 1005.7 - - - - - - - - -
27/06:00pm 26.0 SSE 19 22 1005.4 - - - - - - - - -
27/05:30pm 26.5 SSE 17 19 1005.4 - - - - - - - - -
27/05:00pm 26.5 S 15 17 1005.2 - - - - - - - - -
27/04:30pm 26.6 S 17 20 1005.1 - - - - - - - - -
27/04:00pm 25.7 S 20 23 1004.8 - - - - - - - - -
27/03:30pm 25.9 S 21 23 1004.8 - - - - - - - - -
27/03:00pm 25.9 S 18 23 1004.9 - - - - - - - - -
27/02:30pm 27.2 S 19 21 1004.9 - - - - - - - - -
27/02:00pm 27.3 S 20 21 1004.8 - - - - - - - - -
27/01:30pm 27.1 S 19 21 1004.9 - - - - - - - - -
27/01:00pm 27.2 S 17 19 1005.0 - - - - - - - - -
27/12:30pm 27.3 S 16 18 1005.4 - - - - - - - - -
27/12:00pm 27.0 S 17 19 1005.6 - - - - - - - - -
27/11:30am 27.2 S 17 19 1006.1 - - - - - - - - -
27/11:00am 27.2 S 16 18 1006.3 - - - - - - - - -
27/10:30am 27.2 S 16 17 1006.8 - - - - - - - - -
27/10:00am 27.2 S 16 18 1006.9 - - - - - - - - -
27/09:30am 27.0 S 15 17 1006.7 - - - - - - - - -
27/09:00am 26.6 S 14 16 1006.6 - - - - - - - - -
27/08:30am 26.8 S 14 17 1006.5 - - - - - - - - -
27/08:00am 26.7 S 15 16 1006.2 - - - - - - - - -
27/07:54am 26.6 S 15 16 1006.4 - - - - - - - - -
27/07:30am 26.6 S 1 3 1006.3 - - - - - - - - -
27/07:00am 26.6 S 1 13 1006.0 - - - - - - - - -
27/06:30am 26.7 SSE 11 12 1005.5 - - - - - - - - -
27/06:00am 26.4 SSE 13 15 1005.2 - - - - - - - - -
27/05:30am 26.6 SSE 13 16 1005.0 - - - - - - - - -
27/05:00am 26.5 S 12 13 1004.6 - - - - - - - - -
27/04:30am 26.4 S 13 15 1004.7 - - - - - - - - -
27/04:00am 26.3 SSE 14 16 1004.4 - - - - - - - - -
27/03:30am 26.3 S 15 17 1004.5 - - - - - - - - -
27/03:00am 26.5 SSE 15 17 1004.6 - - - - - - - - -
27/02:30am 26.5 SSE 15 17 1004.8 - - - - - - - - -
27/02:00am 26.3 S 14 16 1005.0 - - - - - - - - -
27/01:30am 26.4 SSE 15 18 1005.3 - - - - - - - - -
27/01:00am 26.4 SSE 16 18 1005.4 - - - - - - - - -
27/12:30am 26.6 SSE 17 20 1005.8 - - - - - - - - -
27/12:00am 26.6 S 18 21 1006.1 - - - - - - - - -
 
Date/Time
EST
Temp

°C
Wind Pressure Rain
since 9am
mm
Weather Cloud Vis
km
Sea
Height
m
Swell
Dir
 
Speed
knots
Gust
knots
hPa Trend Height
m
Period
s
Dir
26/11:30pm 26.4 S 18 20 1006.5 - - - - - - - - -
26/11:00pm 26.9 S 19 21 1006.6 - - - - - - - - -
26/10:30pm 26.8 SSE 20 23 1006.6 - - - - - - - - -
26/10:00pm 26.7 S 20 23 1006.7 - - - - - - - - -
26/09:30pm 27.0 S 19 23 1006.8 - - - - - - - - -

Other Formats:

Comma delimited format used in spreadsheet applications
http://www.bom.gov.au/fwo/IDQ60701/IDQ60701.94393.axf

JavaScript Object Notation format (JSON) in row-major order
http://www.bom.gov.au/fwo/IDQ60701/IDQ60701.94393.json